WetterOnline ( https://www.wetteronline.de )

Wetter aktuell St. Wendel

Aktuelles Wetter: Tholey (398m)

6-stündlich | Neueste Meldungen
Ortszeit Temperatur Wetter
Mo, 21.10. 20:00 10.3° C wolkig
Mo, 21.10. 14:00 13.2° C wolkig
Mo, 21.10. 8:00 12.9° C wolkig
Mo, 21.10. 2:00 13.7° C bedeckt
So, 20.10. 20:00 14.5° C leichter Regen
So, 20.10. 14:00 14.3° C Sprühregen
So, 20.10. 8:00 12.0° C Sprühregen
So, 20.10. 2:00 11.4° C Sprühregen
Ortszeit Temperatur Wetter
Di, 22.10. 0:30 9.5° C bewölkt
Di, 22.10. 0:20 9.5° C bewölkt
Di, 22.10. 0:10 9.6° C bedeckt
Di, 22.10. 0:00 9.4° C bedeckt
Mo, 21.10. 23:50 9.4° C bedeckt
Mo, 21.10. 23:40 9.4° C bedeckt
Mo, 21.10. 23:30 9.6° C bedeckt
Mo, 21.10. 23:00 9.9° C bedeckt
Mo, 21.10. 22:30 9.9° C bedeckt
Mo, 21.10. 22:00 10.0° C bedeckt
Mo, 21.10. 21:30 10.2° C bedeckt
Ortszeit Relative Feuchte Sichtweite
Mo, 21.10. 20:00 89% 65 km
Mo, 21.10. 14:00 78% >70 km
Mo, 21.10. 8:00 94% 60 km
Mo, 21.10. 2:00 91% 65 km
So, 20.10. 20:00 87% 40 km
So, 20.10. 14:00 88% 45 km
So, 20.10. 8:00 100% 8 km
So, 20.10. 2:00 99% 14 km
Ortszeit Relative Feuchte Sichtweite
Di, 22.10. 0:30 94% 55 km
Di, 22.10. 0:20 94% -
Di, 22.10. 0:10 95% -
Di, 22.10. 0:00 97% 30 km
Mo, 21.10. 23:50 97% -
Mo, 21.10. 23:40 96% -
Mo, 21.10. 23:30 95% 40 km
Mo, 21.10. 23:00 92% 55 km
Mo, 21.10. 22:30 92% 65 km
Mo, 21.10. 22:00 91% 65 km
Mo, 21.10. 21:30 90% 65 km
Ortszeit Niederschlagsmenge Niederschlagsart
Mo, 21.10. 20:00 0.0 l/m2 in 12 Std. -
Mo, 21.10. 14:00 0.0 l/m2 in 6 Std. -
Mo, 21.10. 8:00 9 l/m2 in 12 Std. Regen
Mo, 21.10. 2:00 7 l/m2 in 6 Std. Regen
So, 20.10. 20:00 2 l/m2 in 12 Std. Regen
So, 20.10. 14:00 2 l/m2 in 6 Std. Regen
So, 20.10. 8:00 6 l/m2 in 12 Std. Regen
So, 20.10. 2:00 3 l/m2 in 6 Std. Regen
Ortszeit Niederschlagsmenge Niederschlagsart
Di, 22.10. 0:30 0.0 l/m2 in 1 Std. -
Di, 22.10. 0:20 keine Meldung -
Di, 22.10. 0:10 keine Meldung -
Di, 22.10. 0:00 0.0 l/m2 in 1 Std. -
Mo, 21.10. 23:50 keine Meldung -
Mo, 21.10. 23:40 keine Meldung -
Mo, 21.10. 23:30 0.0 l/m2 in 1 Std. -
Mo, 21.10. 23:00 0.0 l/m2 in 1 Std. -
Mo, 21.10. 22:30 0.0 l/m2 in 1 Std. -
Mo, 21.10. 22:00 0.0 l/m2 in 1 Std. -
Mo, 21.10. 21:30 0.0 l/m2 in 1 Std. -
Ortszeit Stärke Spitze Richtung
km/h Bft. km/h Grad Sektor
Mo, 21.10. 20:00 6 1 31 260° W
Mo, 21.10. 14:00 26 4 39 240° SW
Mo, 21.10. 8:00 13 3 26 210° SW
Mo, 21.10. 2:00 7 2 22 110° O
So, 20.10. 20:00 7 2 29 260° W
So, 20.10. 14:00 6 1 24 100° O
So, 20.10. 8:00 9 2 11 110° O
So, 20.10. 2:00 4 1 18 100° O
Ortszeit Stärke Spitze Richtung
km/h Bft. km/h Grad Sektor
Di, 22.10. 0:30 0 0 4 - -
Di, 22.10. 0:20 0 0 - 210° SW
Di, 22.10. 0:10 2 1 - 270° W
Di, 22.10. 0:00 4 1 7 110° O
Mo, 21.10. 23:50 4 1 - 110° O
Mo, 21.10. 23:40 4 1 - 100° O
Mo, 21.10. 23:30 4 1 7 210° SW
Mo, 21.10. 23:00 4 1 7 290° W
Mo, 21.10. 22:30 2 1 6 150° SO
Mo, 21.10. 22:00 4 1 7 200° S
Mo, 21.10. 21:30 6 1 7 280° W
Ortszeit Untergrenze Bedeckung Gattung
total tief tief mittel hoch
Mo, 21.10. 20:00 630 m 8/8 3/8 - - -
Mo, 21.10. 14:00 570 m 8/8 1/8 - - -
Mo, 21.10. 8:00 300 m 8/8 3/8 - - -
Mo, 21.10. 2:00 3000 m 8/8 8/8 - - -
So, 20.10. 20:00 1800 m 8/8 8/8 - - -
So, 20.10. 14:00 1500 m 8/8 8/8 - - -
So, 20.10. 8:00 90 m 8/8 8/8 - - -
So, 20.10. 2:00 210 m 8/8 8/8 - - -
Ortszeit Bedeckungsgrad in Achtel und Wolkenuntergrenze
Di, 22.10. 0:30 4(870m) 7(7800m) 8(8700m)
Di, 22.10. 0:20 4(870m) 7(7800m) 8(8700m)
Di, 22.10. 0:10 5(870m) 8(2100m) 8(3300m)
Di, 22.10. 0:00 8(2400m) 8(3300m) 8(3600m)
Mo, 21.10. 23:50 8(2400m) 8(3300m)
Mo, 21.10. 23:40 8(2100m)
Mo, 21.10. 23:30 3(930m) 8(2100m) 8(4800m)
Mo, 21.10. 23:00 5(900m) 8(2400m) 8(4500m)
Mo, 21.10. 22:30 2(960m) 8(2400m) 8(4500m)
Mo, 21.10. 22:00 2(630m) 8(960m) 8(2400m)
Mo, 21.10. 21:30 2(630m) 8(990m) 8(2700m)
Ortszeit Luftdruck NN (hPa) Tendenz (hPa in 3 Std.)
Mo, 21.10. 20:00 1023 + 1,7
Mo, 21.10. 14:00 1020 + 1,7
Mo, 21.10. 8:00 1015 + 1,6
Mo, 21.10. 2:00 1010 - 0,6
So, 20.10. 20:00 1008 + 0,8
So, 20.10. 14:00 1007 0,0
So, 20.10. 8:00 1008 + 0,2
So, 20.10. 2:00 1008 - 0,6
Ortszeit Luftdruck NN (hPa) Tendenz (hPa in 3 Std.)
Di, 22.10. 0:30 1024 + 0,6
Di, 22.10. 0:20 1024 keine Meldung
Di, 22.10. 0:10 1024 keine Meldung
Di, 22.10. 0:00 1024 + 1,0
Mo, 21.10. 23:50 1024 keine Meldung
Mo, 21.10. 23:40 1024 keine Meldung
Mo, 21.10. 23:30 1023 + 0,5
Mo, 21.10. 23:00 1024 + 0,9
Mo, 21.10. 22:30 1023 + 1,2
Mo, 21.10. 22:00 1023 + 1,2
Mo, 21.10. 21:30 1023 + 1,5
Ortszeit Schneehöhe (cm)
Mo, 21.10. 20:00 0
Mo, 21.10. 14:00 0
Mo, 21.10. 8:00 0
Mo, 21.10. 2:00 0
So, 20.10. 20:00 0
So, 20.10. 14:00 0
So, 20.10. 8:00 0
So, 20.10. 2:00 0
Ortszeit Schneehöhe (cm)
Di, 22.10. 0:30 0
Di, 22.10. 0:20 0
Di, 22.10. 0:10 0
Di, 22.10. 0:00 0
Mo, 21.10. 23:50 0
Mo, 21.10. 23:40 0
Mo, 21.10. 23:30 0
Mo, 21.10. 23:00 0
Mo, 21.10. 22:30 0
Mo, 21.10. 22:00 0
Mo, 21.10. 21:30 0
Link zu dieser Seite / Seite empfehlen

Das Wetter in ...